Tracking 28794 objects as of 19-Apr-2024
HD Live streaming from Space Station
objects crossing your sky now

CZ-2D DEB

Track CZ-2D DEB now!
10-day predictions


NORAD ID: 35273
Int'l Code: 2005-024M
Perigee: 466.9 km
Apogee: 483.0 km
Inclination: 97.2 °
Period: 94.0 minutes
Semi major axis: 6845 km
RCS: 0.0164 m2 (small)
Launch date: July 5, 2005
Source: People's Republic of China (PRC)
Launch site: Jiuquan Satellite Launch Center, China (JSC)

Note: This is SATELLITE DEBRIS
Your satellite tracking list
Your tracking list is empty




NASA's NSSDC Master Catalog

Two Line Element Set (TLE):
1 35273U 05024M   24109.86455220  .00022774  00000-0  72105-3 0  9999
2 35273  97.2291 138.3341 0011748 104.0015 256.2535 15.32687463 58575
Source of the keplerian elements: AFSPC